Regional Weather Roundup
Issued by NWS

Home | Current Version | Previous Version | Graphics & Text | Print | Product List | Glossary On
Versions: 1 2 3 4 5 6 7 8 9 10 11 12 13 14 15 16 17 18 19 20 21 22 23 24 25 26 27 28 29 30 31 32 33 34 35 36 37 38 39 40 41 42 43 44 45 46 47 48 49 50
000
ASUS45 KBOU 261407
RWRCO

WEATHER ROUNDUP FOR COLORADO
NATIONAL WEATHER SERVICE DENVER/BOULDER CO
800 AM MDT THU MAR 26 2015

NOTE: "FAIR" INDICATES FEW OR NO CLOUDS BELOW 12000 FEET WITH NO
SIGNIFICANT WEATHER AND/OR OBSTRUCTIONS TO VISIBILITY.

COZ001>005-013-030-031-261500-
...NORTHWEST COLORADO...

CITY           SKY/WX    TMP DP  RH WIND       PRES   REMARKS
CRAIG          PTCLDY    24  20  84 CALM      30.38F
HAYDEN         MOSUNNY   25  18  74 E9        30.37F WCI  15
MEEKER         CLEAR     26  18  71 E3        30.39S
MOUNT WERNER   NOT AVBL
STEAMBOAT SPGS MOSUNNY   21  18  90 CALM      30.37F
WALDEN         MOSUNNY   23  18  80 SE6       30.32S WCI  16
$$

COZ006>008-011-261500-
...WEST CENTRAL VALLEYS...

CITY           SKY/WX    TMP DP  RH WIND       PRES   REMARKS
GRAND JUNCTION CLEAR     33  18  53 CALM      30.38R
MONTROSE       CLEAR     30  17  58 S7        30.42R WCI  23
EAGLE          MOSUNNY   21  18  86 CALM      30.45R
RIFLE          CLEAR     25  18  74 E6        30.42R WCI  18
DELTA          CLEAR     31  17  55 CALM      30.41R
NUCLA          CLEAR     32  16  51 CALM      30.41R
$$

COZ017>023-064>068-261500-
...SOUTHWEST COLORADO...

CITY           SKY/WX    TMP DP  RH WIND       PRES   REMARKS
DURANGO        PTCLDY    26  14  60 VRB3      30.31R
CORTEZ         CLEAR     27  13  55 E10       30.31R WCI  17
PAGOSA SPRINGS MOSUNNY   28  11  48 CALM      30.32S
TELLURIDE      CLEAR     26  11  53 SE3       30.39R
WOLF CREEK PAS SUNNY     23   3  42 N5        30.38R WCI  17
$$

COZ009-010-012-014-032>034-037-058>063-261500-
...CENTRAL COLORADO...

CITY           SKY/WX    TMP DP  RH WIND       PRES   REMARKS
ASPEN          MOSUNNY   20  13  74 S3        30.39R
BUENA VISTA    MOSUNNY   32   9  39 NW20      30.31R WCI  20
COPPER MTN     CLOUDY    16   9  73 W20G25    30.34R WCI  -1
BERTHOUD PASS  CLOUDY     9   1  72 MISG      30.27S
COTTONWOOD PAS MOSUNNY   30   9  40 NW5       30.31R WCI  25
GUNNISON       SUNNY     21  10  63 NE3       30.41R
KREMMLING      SUNNY     23  19  86 CALM      30.39F
LEADVILLE      MOSUNNY   12   6  77 N14       30.34R WCI  -3
SALIDA         MOSUNNY   29  15  56 CALM      30.40R
SUNLIGHT       SUNNY     21  12  68 N5        30.42R WCI  15
WILKERSON PASS CLOUDY    21  10  63 N15G37    30.29R WCI   8
$$

COZ069>075-261500-
...SAN LUIS VALLEY/SANGRE DE CRISTO MOUNTAINS...

CITY           SKY/WX    TMP DP  RH WIND       PRES   REMARKS
ALAMOSA        PTSUNNY   22  15  75 CALM      30.33R
LA VETA PASS   MOSUNNY   19  12  73 S6        30.29R WCI  11
SAGUACHE       MOSUNNY   32  12  43 NW9       30.33R WCI  24
$$

COZ035-036-038>040-261500-
...NORTHERN COLORADO FRONT RANGE...

CITY           SKY/WX    TMP DP  RH WIND       PRES   REMARKS
DENVER INTL AP MOSUNNY   36  23  59 SW9       30.22R
DMNS CITY PARK   N/A     35  21  55 S6        30.24S WCI  30
AURORA         MOSUNNY   34  21  60 S6        30.24R WCI  28
FRONT RANGE AP MOSUNNY   37  25  60 SW8       30.23R
ERIE MUNI ARPT MOSUNNY   31  30  97 SW5       30.22F WCI  26
BOULDER MUN AP MOSUNNY   32  32 100 CALM      30.23R
CENTENNIAL     MOSUNNY   36  20  52 SW3       30.23R
BROOMFIELD     PTSUNNY   34  28  80 CALM      30.23R
FORT COLLINS   MOSUNNY   30  28  93 S5        30.22R WCI  25
LONGMONT       MOSUNNY   32  30  92 CALM      30.24F
$$

COZ041-046-047-076>085-087-088-261500-
...PIKES PEAK/PALMER DIVIDE AND SOUTHERN FOOTHILLS...

CITY           SKY/WX    TMP DP  RH WIND       PRES   REMARKS
COLO. SPRINGS  MOSUNNY   32  21  64 N7        30.25R WCI  26
A. F. ACADEMY  MOSUNNY   25  17  74 N7        30.24R WCI  17
ELLICOTT       SUNNY    N/A N/A N/A CALM      30.24R
FALCON         SUNNY     32  19  58 NW5       30.25R WCI  28
FORT CARSON    SUNNY     31  22  70 N10       30.23R WCI  22
LIMON          SUNNY     30  24  78 W13       30.22S WCI  20
MONUMENT HILL  SUNNY     28  18  64 W8        30.23R WCI  20
TRINIDAD       MOSUNNY   29  21  72 SW17      30.27R WCI  17
$$

COZ042>045-048>051-090-091-261500-
...NORTHEAST COLORADO...

CITY           SKY/WX    TMP DP  RH WIND       PRES   REMARKS
GREELEY ARPT   MOSUNNY   30  23  74 CALM      30.21R
AKRON          MOSUNNY   33  29  85 W10       30.19S WCI  25
BURLINGTON     SUNNY     33  29  85 W6        30.21S WCI  28
WRAY           MOSUNNY   32  30  91 SW6       30.19F WCI  26
STERLING       CLOUDY    30  28  93 SW9       30.18S WCI  22
HOLYOKE        MOSUNNY   34  32  93 W8        30.16F WCI  27
FORT MORGAN    MOSUNNY   30  29  96 W8        30.22R FOG     WCI  23
$$

COZ086-089-092>099-261500-
...SOUTHEAST COLORADO...

CITY           SKY/WX    TMP DP  RH WIND       PRES   REMARKS
PUEBLO         SUNNY     28  27  96 VRB3      30.25R
LA JUNTA       SUNNY     32  28  85 W8        30.25R WCI  25
LAMAR          SUNNY     32  30  92 SW7       30.24S WCI  26
SPRINGFIELD      N/A     33  30  88 W3        30.24R
$$


USA.gov is the U.S. government's official web portal to all federal, state and local government web resources and services.